Location: Richmond
(37.5536°N, 77.4606°W)
Time: 11:00:05
(UTC-04:00)

ISS - Visible Passes

Search period start: 30 July 2016 00:00
Search period end: 09 August 2016 00:00
Orbit: 401 x 404 km, 51.6° (Epoch: 30 July)

Date Brightness Start Highest point End Pass type
(mag) Time Alt. Az. Time Alt. Az. Time Alt. Az.
30 Jul -1.0 21:10:46 10° W 21:13:36 27° NNW 21:16:26 10° NNE visible
31 Jul 0.0 21:56:33 10° NW 21:57:37 11° NNW 21:58:41 10° N visible
01 Aug -0.3 21:02:17 10° WNW 21:04:22 16° NNW 21:06:27 10° NNE visible
03 Aug 0.0 20:54:40 10° NNW 20:55:13 10° NNW 20:55:46 10° N visible
04 Aug 0.0 23:16:11 10° N 23:16:39 11° N 23:16:39 11° N visible
06 Aug -0.3 23:05:43 10° NNW 23:06:41 14° N 23:06:41 14° N visible
07 Aug -0.6 22:13:17 10° N 22:14:43 12° NNE 22:15:26 12° NE visible
08 Aug -0.6 22:55:36 10° NNW 22:56:47 19° NNW 22:56:47 19° NNW visible
